Regional Weather Roundup
Issued by NWS New Orleans/Baton Rouge, LA

Home | Current Version | Previous Version | Text Only | Print | Product List | Glossary On
Versions: 1 2 3 4 5 6 7 8 9 10 11 12 13 14 15 16 17 18 19 20 21 22 23 24 25 26 27 28 29 30 31 32 33 34 35 36 37 38 39 40 41 42 43 44 45 46 47 48 49 50
095
ASUS44 KLIX 211801
RWRLIX
NEW ORLEANS REGIONAL WEATHER ROUNDUP
NATIONAL WEATHER SERVICE NEW ORLEANS LA
100 PM CDT TUE OCT 21 2014

NOTE: "FAIR" INDICATES FEW OR NO CLOUDS BELOW 12,000 FEET WITH NO
      SIGNIFICANT WEATHER AND/OR OBSTRUCTIONS TO VISIBILITY.
      SKY/WX - SKY CONDITION AND SIGNIFICANT WEATHER.
      TMP - AIR TEMPERATURE.     DP    - DEWPOINT TEMPERATURE.
      RH  - RELATIVE HUMIDITY.   PRES  - PRESSURE.
      HI  - HEAT INDEX.          WCI   - WIND CHILL INDEX.

*  THESE STATIONS ARE NOT NWS OR FAA STATIONS AND ARE NOT UNDER
   NWS QUALITY CONTROL.

LAZ038-040-048-061>063-065>067-069-211900-
SOUTHEAST LOUISIANA

CITY           SKY/WX    TMP DP  RH WIND       PRES   REMARKS
N.O. AUDUBON   NOT AVBL
N.O. INTL ARPT MOSUNNY   77  53  43 NE10      30.04F
6HR MIN TEMP:  59; 6HR MAX TEMP:  78;

N.O. LAKEFRONT SUNNY     77  55  46 NE9       30.04F
6HR MIN TEMP:  67; 6HR MAX TEMP:  77;

N.O. DOWNTOWN*   N/A     77  52  41 E6        30.04F
6HR MIN TEMP:  64; 6HR MAX TEMP:  77;

SLIDELL        SUNNY     78  52  40 NE9       30.03F
6HR MIN TEMP:  50; 6HR MAX TEMP:  78;

BATON ROUGE    SUNNY     79  53  40 N7        30.05F
6HR MIN TEMP:  54; 6HR MAX TEMP:  79;

BOOTHVILLE     SUNNY     76  61  59 NE10G17   30.03F
6HR MIN TEMP:  71; 6HR MAX TEMP:  77;

BELLE CHASSE   MOSUNNY   78  51  38 NE13      30.03F
6HR MIN TEMP:  55; 6HR MAX TEMP:  78;

BOGALUSA*        N/A     79  52  38 N3        30.06F
6HR MIN TEMP:  48; 6HR MAX TEMP:  80;

NEW ROADS*       N/A     77  53  44 N7        30.06F
6HR MIN TEMP:  53; 6HR MAX TEMP:  77;

GONZALES*        N/A     78  51  38 NE5       30.03F
6HR MIN TEMP:  55; 6HR MAX TEMP:  78;

HAMMOND*       NOT AVBL
HOUMA*         SUNNY     79  54  41 N12       30.02F
PORT FOURCHON* CLEAR     77  61  57 NE14      30.05F

$$

MSZ070-080>082-211900-
SOUTHERN MISSISSIPPI

CITY           SKY/WX    TMP DP  RH WIND       PRES   REMARKS
MCCOMB         SUNNY     76  51  41 N6        30.06F
6HR MIN TEMP:  57; 6HR MAX TEMP:  76;

GULFPORT       SUNNY     78  50  37 NE9       30.02F
6HR MIN TEMP:  54; 6HR MAX TEMP:  79;

BILOXI         SUNNY     78  52  40 NE8       30.02F
6HR MIN TEMP:  55; 6HR MAX TEMP:  78;

PASCAGOULA     SUNNY     78  51  38 NE9       30.02F
6HR MIN TEMP:  49; 6HR MAX TEMP:  79;

STENNIS ARPT*  SUNNY     79  45  29 NE7       30.04

$$

COASTAL OBSERVATIONS
LAKE AND NEARSHORE STATIONS

STATION/POSITION TIME  TEMP    WIND        PRES    WAVE
                       AIR SEA DIR/SP/G            HT/PER
                 (UTC) (F)     (DEG/KT/KT) (MB)    (FT/S)
PASCAGOULA       1700          350/  6/  9   N/A
WAVELAND YACHT   1700           90/  2/  3   N/A
GRAND ISLE       1700      76   60/ 12/ 15   N/A
SOUTHWEST PASS   1700      84                N/A
NEW CANAL        1700      72   40/ 10/ 11   N/A
SHELL BEACH      1700      69   40/ 11/ 13   N/A

OFFSHORE STATIONS

STATION/POSITION TIME  TEMP    WIND        PRES    WAVE
                       AIR SEA DIR/SP/G            HT/PER
                 (UTC) (F)     (DEG/KT/KT) (MB)    (FT/S)
64 S DAUPHIN ISL 1706   74 80   50/ 12/ 16 1016.9    2/ 4

$$




USA.gov is the U.S. government's official web portal to all federal, state and local government web resources and services.